Regional Weather Roundup
Issued by NWS

Home | Current Version | Previous Version | Graphics & Text | Print | Product List | Glossary On
Versions: 1 2 3 4 5 6 7 8 9 10 11 12 13 14 15 16 17 18 19 20 21 22 23 24 25 26 27 28 29 30 31 32 33 34 35 36 37 38 39 40 41 42 43 44 45 46 47 48 49 50
000
ASUS43 KLMK 200610
RWRKY
NATIONAL WEATHER SERVICE LOUISVILLE KY
100 AM EST MON NOV 20 2017

NOTE "FAIR" INDICATES FEW OR NO CLOUDS BELOW 12,000 FEET
WITH NO SIGNIFICANT WEATHER AND/OR OBSTRUCTIONS TO VISIBILITY.

KYZ001>023-026-027-061>063-070>075-200700-
WESTERN AND SOUTH CENTRAL KENTUCKY

CITY           SKY/WX    TMP DP  RH WIND       PRES   REMARKS
PADUCAH        CLEAR     27  22  81 CALM      30.24R
HENDERSON      CLEAR     26  25  96 S6        30.24S WCI  19
OWENSBORO      CLEAR     27  23  85 CALM      30.24S
HOPKINSVILLE   CLEAR     28  22  79 SW3       30.25R
BOWLING GREEN  CLEAR     28  23  81 CALM      30.25R
GLASGOW        CLEAR     26  26 100 CALM      30.23S
$$

KYZ024-025-028>034-038-045-046-053-200700-
NORTH CENTRAL KENTUCKY

CITY           SKY/WX    TMP DP  RH WIND       PRES   REMARKS
LOUISVILLE/SDF CLEAR     30  22  72 SW3       30.22R
LOUISVILLE/LOU CLEAR     29  25  85 CALM      30.23R
FORT KNOX      CLEAR     26  21  80 CALM      30.21R
$$

KYZ035>037-039>044-047>052-055>060-089>105-200700-
NORTHEAST KENTUCKY

CITY           SKY/WX    TMP DP  RH WIND       PRES   REMARKS
LEXINGTON      CLEAR     27  21  78 SW6       30.20S WCI  20
COVINGTON      CLEAR     28  23  81 SW3       30.17R
FRANKFORT      CLEAR     27  21  78 SW3       30.20R
$$

KYZ054-064>069-076>088-106>120-200700-
SOUTHEAST KENTUCKY

CITY           SKY/WX    TMP DP  RH WIND       PRES   REMARKS
JACKSON        CLEAR     30  25  81 SW5       30.19R WCI  25
LONDON         CLEAR     27  24  89 CALM      30.21R
SOMERSET       CLEAR     28  28 100 CALM      30.25R
MIDDLESBORO    CLEAR     28  28  97 CALM      30.22S
MONTICELLO     CLEAR     21  19  92 NE8       30.25R WCI  11
$$





USA.gov is the U.S. government's official web portal to all federal, state and local government web resources and services.